FW7858 Weather Reports


Display with metric or nautical units.
time (UTC)temp
F
wind
direction
speed
MPH
gust
MPH
rain 1hr
in
rain 24hr
in
rain mn
in
humidity
%
barometer
mb
20260906120508 71 317 0.0 0.0 0.00 0.00 0.00 94 1013.0
20260906120005 71 317 0.0 0.0 0.00 0.00 0.00 94 1013.0
20260906115506 71 317 0.0 2.0 0.00 0.00 0.00 94 1012.8
20260906115005 71 317 0.0 2.0 0.00 0.00 0.00 94 1012.8
20260906114505 71 316 0.0 2.0 0.00 0.00 0.00 94 1012.8
20260906114007 71 307 0.0 3.0 0.00 0.00 0.00 94 1012.8
20260906113504 71 309 0.0 3.0 0.00 0.00 0.00 93 1012.7
20260906113005 71 309 0.0 3.0 0.00 0.00 0.00 93 1012.7
20260906112506 71 295 0.0 2.0 0.00 0.00 0.00 93 1012.8
20260906112004 71 291 0.0 4.0 0.00 0.00 0.00 93 1012.9
20260906111504 71 291 1.0 4.0 0.00 0.00 0.00 93 1012.8
20260906111003 71 337 0.0 3.0 0.00 0.00 0.00 93 1012.8
20260906110503 71 340 1.0 4.0 0.00 0.00 0.00 93 1012.9
20260906110004 71 279 0.0 5.0 0.00 0.00 0.00 93 1013.1
20260906105503 71 298 0.0 5.0 0.00 0.00 0.00 93 1013.1
20260906105007 71 44 0.0 4.0 0.00 0.00 0.00 93 1013.2
20260906104503 71 315 1.0 4.0 0.00 0.00 0.00 93 1013.2
20260906104002 71 302 1.0 2.0 0.00 0.00 0.00 93 1013.1
20260906103603 71 298 0.0 2.0 0.00 0.00 0.00 93 1013.1
20260906103002 71 298 0.0 7.0 0.00 0.00 0.00 93 1013.2
20260906102502 71 298 1.0 7.0 0.00 0.00 0.00 93 1013.0
20260906102004 71 300 2.0 5.0 0.00 0.00 0.00 93 1012.8
20260906101502 71 328 2.0 3.0 0.00 0.00 0.00 93 1013.0
20260906101003 71 328 1.0 3.0 0.00 0.00 0.00 93 1013.1
20260906100500 71 328 0.0 3.0 0.00 0.00 0.00 93 1013.2
20260906100001 71 338 1.0 4.0 0.00 0.00 0.00 93 1013.2
20260906095501 71 338 0.0 4.0 0.00 0.00 0.00 93 1013.2
20260906095003 71 69 1.0 4.0 0.00 0.00 0.00 93 1013.2
20260906094504 71 331 0.0 2.0 0.00 0.00 0.00 93 1013.1
20260906094001 71 331 1.0 2.0 0.00 0.00 0.00 93 1013.0
20260906093600 71 331 1.0 2.0 0.00 0.00 0.00 93 1012.9
20260906093108 71 331 1.0 2.0 0.00 0.00 0.00 93 1012.9
20260906092600 71 331 0.0 2.0 0.00 0.00 0.00 93 1012.8
20260906092059 71 331 0.0 2.0 0.00 0.00 0.00 93 1012.8
20260906091604 71 333 0.0 2.0 0.00 0.00 0.00 92 1012.7
20260906091059 71 333 0.0 2.0 0.00 0.00 0.00 92 1012.6
20260906090559 71 333 0.0 2.0 0.00 0.00 0.00 92 1012.6
20260906090059 71 333 0.0 2.0 0.00 0.00 0.00 92 1012.7
20260906085558 71 333 0.0 3.0 0.00 0.00 0.00 92 1012.6
20260906085058 71 333 1.0 3.0 0.00 0.00 0.00 92 1012.5
20260906084558 71 53 1.0 3.0 0.00 0.00 0.00 92 1012.5
20260906084058 71 53 0.0 3.0 0.00 0.00 0.00 92 1012.6
20260906083557 71 61 1.0 2.0 0.00 0.00 0.00 92 1012.5
20260906083057 71 61 0.0 2.0 0.00 0.00 0.00 92 1012.5
20260906082556 70 62 0.0 2.0 0.00 0.00 0.00 92 1012.4
20260906082056 70 62 0.0 3.0 0.00 0.00 0.00 92 1012.4
20260906081557 70 63 0.0 1.0 0.00 0.00 0.00 92 1012.3
20260906081056 70 63 0.0 3.0 0.00 0.00 0.00 92 1012.2
20260906080556 70 63 0.0 3.0 0.00 0.00 0.00 92 1012.2
20260906080056 70 64 0.0 3.0 0.00 0.00 0.00 92 1012.2
20260906075555 70 38 0.0 4.0 0.00 0.00 0.00 92 1012.0
20260906075057 70 318 2.0 4.0 0.00 0.00 0.00 92 1011.9
20260906074556 70 263 2.0 4.0 0.00 0.00 0.00 92 1011.8
20260906074053 70 309 2.0 4.0 0.00 0.00 0.00 92 1011.8
20260906073553 70 304 2.0 6.0 0.00 0.00 0.00 91 1011.9
20260906073053 70 107 1.0 6.0 0.00 0.00 0.00 91 1012.1
20260906072552 70 322 1.0 4.0 0.00 0.00 0.00 91 1012.2
20260906072051 70 314 1.0 4.0 0.00 0.00 0.00 91 1012.2
20260906071549 70 302 1.0 4.0 0.00 0.00 0.00 91 1012.2
20260906071052 71 300 2.0 4.0 0.00 0.00 0.00 90 1012.3
20260906070549 71 301 2.0 4.0 0.00 0.00 0.00 90 1012.3
20260906070050 71 292 2.0 4.0 0.00 0.00 0.00 90 1012.4
20260906065547 71 296 1.0 4.0 0.00 0.00 0.00 90 1012.6
20260906065046 71 296 2.0 5.0 0.00 0.00 0.00 90 1012.6
20260906064546 71 276 1.0 5.0 0.00 0.00 0.00 89 1012.7
20260906064045 71 302 1.0 3.0 0.00 0.00 0.00 89 1012.6
20260906063545 71 312 1.0 4.0 0.00 0.00 0.00 89 1012.7
20260906063044 71 303 2.0 4.0 0.00 0.00 0.00 89 1012.8
20260906062544 71 56 1.0 5.0 0.00 0.00 0.00 89 1012.8
20260906062046 71 75 1.0 5.0 0.00 0.00 0.00 89 1012.8
20260906061545 71 323 1.0 5.0 0.00 0.00 0.00 89 1012.8
20260906061042 71 60 1.0 5.0 0.00 0.00 0.00 89 1012.9
20260906060542 71 261 2.0 6.0 0.00 0.00 0.00 89 1012.9
20260906060042 71 298 2.0 3.0 0.00 0.00 0.00 89 1012.9
20260906055541 71 311 1.0 5.0 0.00 0.00 0.00 89 1013.0
20260906055041 71 304 2.0 5.0 0.00 0.00 0.00 89 1013.0
20260906054540 71 320 1.0 5.0 0.00 0.00 0.00 90 1012.9
20260906054040 71 334 2.0 5.0 0.00 0.00 0.00 90 1012.8
20260906053540 72 296 2.0 4.0 0.00 0.00 0.00 90 1012.9
20260906053038 72 290 2.0 3.0 0.00 0.00 0.00 90 1013.0
20260906052537 72 288 1.0 3.0 0.00 0.00 0.00 90 1013.1
20260906052037 72 285 1.0 3.0 0.00 0.00 0.00 90 1013.2
20260906051536 72 285 1.0 5.0 0.00 0.00 0.00 90 1013.2
20260906051038 72 284 1.0 5.0 0.00 0.00 0.00 90 1013.2
20260906050535 72 298 2.0 4.0 0.00 0.00 0.00 90 1013.2
20260906050034 72 300 1.0 3.0 0.00 0.00 0.00 90 1013.2
20260906045534 72 300 1.0 3.0 0.00 0.00 0.00 89 1013.1
20260906045135 73 300 1.0 3.0 0.00 0.00 0.00 89 1013.1
20260906044536 73 300 1.0 3.0 0.00 0.00 0.00 89 1013.1
20260906044032 73 299 1.0 3.0 0.00 0.00 0.00 89 1013.2
20260906043533 73 299 1.0 3.0 0.00 0.00 0.00 89 1013.2
20260906043042 73 298 0.0 3.0 0.00 0.00 0.00 88 1013.2
20260906042532 73 298 1.0 3.0 0.00 0.00 0.00 88 1013.2
20260906042033 73 298 1.0 3.0 0.00 0.00 0.00 88 1013.2
20260906041536 73 298 0.0 1.0 0.00 0.00 0.00 88 1013.2
20260906041034 73 298 0.0 1.0 0.00 0.00 0.00 88 1013.3
20260906040535 73 298 0.0 0.0 0.00 0.00 0.00 89 1013.3
20260906040035 73 298 0.0 1.0 0.00 0.00 0.00 89 1013.3
20260906035533 73 298 0.0 2.0 0.00 0.00 0.00 89 1013.3
20260906035031 73 298 1.0 2.0 0.00 0.00 0.00 89 1013.2
20260906034531 73 298 1.0 2.0 0.00 0.00 0.00 89 1013.1
20260906034032 73 298 0.0 1.0 0.00 0.00 0.00 89 1013.2
20260906033531 73 298 0.0 0.0 0.00 0.00 0.00 89 1013.2
20260906033031 73 298 0.0 2.0 0.00 0.00 0.00 89 1013.1
20260906032530 74 298 1.0 2.0 0.00 0.00 0.00 89 1013.1
20260906032031 74 298 0.0 2.0 0.00 0.00 0.00 89 1013.1
20260906031544 74 298 0.0 2.0 0.00 0.00 0.00 88 1013.0
20260906031030 74 298 0.0 2.0 0.00 0.00 0.00 88 1012.9
20260906030630 74 297 1.0 2.0 0.00 0.00 0.00 88 1012.9
20260906030029 74 297 0.0 2.0 0.00 0.00 0.00 87 1012.9
20260906025534 74 297 0.0 2.0 0.00 0.00 0.00 87 1012.9
20260906025029 74 297 1.0 2.0 0.00 0.00 0.00 87 1012.8
20260906024529 75 297 0.0 2.0 0.00 0.00 0.00 87 1012.7
20260906024032 75 298 0.0 3.0 0.00 0.00 0.00 86 1012.6
20260906023529 75 297 1.0 3.0 0.00 0.00 0.00 86 1012.5
20260906023032 75 297 2.0 3.0 0.00 0.00 0.00 86 1012.4
20260906022528 75 296 1.0 4.0 0.00 0.00 0.00 86 1012.3
20260906022033 75 297 2.0 4.0 0.00 0.00 0.00 86 1012.3
20260906021528 75 290 1.0 2.0 0.00 0.00 0.00 86 1012.3
20260906021027 75 290 1.0 3.0 0.00 0.00 0.00 86 1012.4
20260906020530 75 289 1.0 3.0 0.00 0.00 0.00 86 1012.4
20260906020032 75 277 0.0 3.0 0.00 0.00 0.00 86 1012.3
20260906015527 75 277 0.0 3.0 0.00 0.00 0.00 86 1012.4
20260906015027 75 277 1.0 3.0 0.00 0.00 0.00 86 1012.3
20260906014530 75 277 0.0 3.0 0.00 0.00 0.00 86 1012.2
20260906014029 75 276 0.0 2.0 0.00 0.00 0.00 85 1012.2
20260906013527 76 276 1.0 2.0 0.00 0.00 0.00 85 1012.3
20260906013027 76 276 0.0 2.0 0.00 0.00 0.00 85 1012.2
20260906012526 76 276 0.0 2.0 0.00 0.00 0.00 85 1012.1
20260906012026 76 276 1.0 2.0 0.00 0.00 0.00 85 1012.1
20260906011526 76 276 0.0 1.0 0.00 0.00 0.00 84 1012.2
20260906011027 76 276 0.0 1.0 0.00 0.00 0.00 84 1012.2
20260906010525 77 276 0.0 1.0 0.00 0.00 0.00 84 1012.1
20260906010025 77 276 0.0 1.0 0.00 0.00 0.00 83 1012.2
20260906005527 77 276 0.0 1.0 0.00 0.00 0.00 82 1012.2
20260906005025 77 285 0.0 1.0 0.00 0.00 0.00 82 1012.2
20260906004525 78 315 0.0 1.0 0.00 0.00 0.00 81 1012.1
20260906004025 78 315 0.0 1.0 0.00 0.00 0.00 81 1012.1
20260906003524 78 315 0.0 0.0 0.00 0.00 0.00 80 1012.0
20260906003027 79 315 0.0 1.0 0.00 0.00 0.00 80 1012.1
20260906002524 79 315 0.0 2.0 0.00 0.00 0.00 79 1012.1
20260906002025 79 315 0.0 3.0 0.00 0.00 0.00 79 1011.8
20260906001526 79 316 0.0 3.0 0.00 0.00 0.00 78 1011.5
20260906001023 80 300 0.0 3.0 0.00 0.00 0.00 77 1011.3
20260906000524 80 300 1.0 4.0 0.00 0.00 0.00 77 1011.1
20260906000024 81 281 1.0 7.0 0.00 0.00 0.00 76 1010.8
20260905235523 81 128 1.0 7.0 0.00 0.00 0.00 76 1010.7
20260905235023 81 315 2.0 5.0 0.00 0.00 0.00 76 1010.6
20260905234522 81 212 1.0 5.0 0.00 0.00 0.00 76 1010.5
20260905234031 81 336 2.0 5.0 0.00 0.00 0.00 77 1010.5
20260905233521 80 321 2.0 6.0 0.00 0.00 0.00 77 1010.5
20260905233025 80 121 2.0 6.0 0.00 0.00 0.00 77 1010.4
20260905232521 80 51 0.0 6.0 0.00 0.00 0.00 78 1010.4
20260905232021 80 271 2.0 7.0 0.00 0.00 0.00 78 1010.4
20260905231519 80 340 1.0 4.0 0.00 0.00 0.00 78 1010.4
20260905231019 80 309 1.0 4.0 0.00 0.00 0.00 78 1010.4
20260905230522 80 314 1.0 4.0 0.00 0.00 0.00 78 1010.6
20260905230019 80 307 2.0 7.0 0.00 0.00 0.00 77 1010.6
20260905225519 80 281 2.0 7.0 0.00 0.00 0.00 77 1010.5
20260905225018 80 281 2.0 9.0 0.00 0.00 0.00 78 1010.4
20260905224518 80 9 3.0 9.0 0.00 0.00 0.00 77 1010.4
20260905224018 80 296 3.0 9.0 0.00 0.00 0.00 77 1010.3
20260905223518 80 313 3.0 9.0 0.00 0.00 0.00 78 1010.4
20260905223033 80 355 2.0 8.0 0.00 0.00 0.00 78 1010.3
20260905222518 80 5 3.0 5.0 0.00 0.00 0.00 78 1010.3
20260905222022 80 355 2.0 9.0 0.00 0.00 0.00 79 1010.3
20260905221534 80 331 2.0 9.0 0.00 0.00 0.00 80 1010.3
20260905221116 79 355 3.0 9.0 0.00 0.00 0.00 80 1010.4
20260905220515 79 355 3.0 12.0 0.00 0.00 0.00 80 1010.3
20260905220015 79 317 5.0 12.0 0.00 0.00 0.00 81 1010.2
20260905215517 79 350 4.0 10.0 0.00 0.00 0.00 81 1010.2
20260905215015 78 355 4.0 14.0 0.00 0.00 0.00 81 1010.2
20260905214514 78 355 6.0 15.0 0.00 0.00 0.00 81 1010.1
20260905214015 79 5 6.0 15.0 0.00 0.00 0.00 81 1010.2
20260905213513 79 344 5.0 10.0 0.00 0.00 0.00 81 1010.3
20260905213011 78 355 4.0 13.0 0.00 0.00 0.00 82 1010.5
20260905212511 78 346 8.0 13.0 0.00 0.00 0.00 80 1010.7
20260905212015 79 351 5.0 14.0 0.00 0.00 0.00 80 1011.0
20260905211524 78 11 3.0 14.0 0.00 0.00 0.00 81 1011.0
20260905211008 79 338 9.0 13.0 0.00 0.00 0.00 80 1011.1
20260905210510 79 5 7.0 12.0 0.00 0.00 0.00 80 1011.2
20260905210007 79 355 4.0 13.0 0.00 0.00 0.00 80 1011.5
20260905205508 79 336 5.0 13.0 0.00 0.00 0.00 80 1011.6
20260905205007 79 13 7.0 13.0 0.00 0.00 0.00 80 1011.7
20260905204509 79 355 4.0 12.0 0.00 0.00 0.00 81 1011.7
20260905204007 79 5 6.0 15.0 0.00 0.00 0.00 81 1012.0
20260905203508 79 347 6.0 15.0 0.00 0.00 0.00 81 1011.9
20260905203008 79 345 5.0 15.0 0.00 0.00 0.00 81 1012.0
20260905202505 79 348 3.0 13.0 0.00 0.00 0.00 80 1012.0
20260905202005 79 355 5.0 13.0 0.00 0.00 0.00 80 1012.0
20260905201610 79 13 6.0 14.0 0.00 0.00 0.00 79 1012.2
20260905201007 79 355 7.0 12.0 0.00 0.00 0.00 78 1012.1
20260905200503 79 355 5.0 11.0 0.00 0.00 0.00 78 1011.9
20260905200004 79 351 5.0 13.0 0.00 0.00 0.00 78 1012.0
20260905195506 79 350 6.0 13.0 0.00 0.00 0.00 77 1012.2
20260905195002 79 5 5.0 10.0 0.00 0.00 0.00 78 1012.2
20260905194502 79 341 5.0 12.0 0.00 0.00 0.00 78 1012.2
20260905194003 79 5 4.0 12.0 0.00 0.00 0.00 77 1012.3
20260905193501 79 360 4.0 12.0 0.00 0.00 0.00 76 1012.5
20260905193001 79 341 6.0 12.0 0.00 0.00 0.00 76 1012.7
20260905192502 79 329 6.0 10.0 0.00 0.00 0.00 77 1012.8
20260905192101 79 9 3.0 10.0 0.00 0.00 0.00 76 1012.9
20260905191600 79 351 5.0 10.0 0.00 0.00 0.00 78 1013.0
20260905191104 79 5 4.0 12.0 0.00 0.00 0.00 78 1013.0
20260905190600 79 355 6.0 12.0 0.00 0.00 0.00 77 1013.1
20260905190059 79 9 5.0 11.0 0.00 0.00 0.00 76 1013.3
20260905185559 79 9 4.0 12.0 0.00 0.00 0.00 78 1013.2
20260905185100 79 5 4.0 12.0 0.00 0.00 0.00 77 1013.2
20260905185001 79 5 4.0 12.0 0.00 0.00 0.00 77 1013.2
20260905184608 79 355 4.0 9.0 0.00 0.00 0.00 77 1013.0
20260905184059 79 5 4.0 9.0 0.00 0.00 0.00 78 1013.0
20260905183601 78 5 4.0 12.0 0.00 0.00 0.00 79 1013.0
20260905183058 78 5 6.0 12.0 0.00 0.00 0.00 77 1013.0
20260905182557 79 360 5.0 10.0 0.00 0.00 0.00 77 1013.0
20260905182057 79 343 3.0 10.0 0.00 0.00 0.00 76 1012.9
20260905181557 79 355 5.0 10.0 0.00 0.00 0.00 76 1012.8
20260905181055 79 311 1.0 4.0 0.00 0.00 0.00 77 1012.7
20260905180555 79 329 2.0 5.0 0.00 0.00 0.00 76 1012.7
20260905180100 79 313 2.0 5.0 0.00 0.00 0.00 76 1012.6
20260905175552 79 178 2.0 6.0 0.00 0.00 0.00 77 1012.7
20260905175052 79 288 1.0 6.0 0.00 0.00 0.00 77 1012.7
20260905174600 78 311 1.0 6.0 0.00 0.00 0.00 77 1012.6
20260905174054 78 298 2.0 5.0 0.00 0.00 0.00 77 1012.5
20260905173552 78 302 2.0 6.0 0.00 0.00 0.00 79 1012.7
20260905173049 78 284 2.0 6.0 0.00 0.00 0.00 78 1012.8
20260905172547 78 136 2.0 6.0 0.00 0.00 0.00 79 1012.8
20260905172046 77 355 2.0 8.0 0.00 0.00 0.00 79 1012.8
20260905171558 77 246 3.0 8.0 0.00 0.00 0.00 79 1013.0
20260905171043 77 101 3.0 6.0 0.00 0.00 0.00 79 1012.9
20260905170542 77 153 2.0 7.0 0.00 0.00 0.00 80 1012.9
20260905170040 76 355 2.0 10.0 0.00 0.00 0.00 81 1013.0
20260905165539 76 9 4.0 10.0 0.00 0.00 0.00 80 1012.9
20260905165038 76 338 2.0 8.0 0.00 0.00 0.00 81 1012.9
20260905164541 76 110 3.0 8.0 0.00 0.00 0.00 81 1012.9
20260905164036 75 335 2.0 9.0 0.00 0.00 0.00 82 1013.1
20260905163536 75 320 3.0 10.0 0.00 0.00 0.00 82 1013.2
20260905163036 74 350 4.0 10.0 0.00 0.00 0.00 82 1013.2
20260905162538 75 355 5.0 8.0 0.00 0.00 0.00 81 1013.2
20260905162034 75 49 2.0 7.0 0.00 0.00 0.00 82 1013.3
20260905161540 75 306 2.0 7.0 0.00 0.00 0.00 83 1013.3
20260905161033 74 347 2.0 5.0 0.00 0.00 0.00 84 1013.1
20260905160535 74 300 2.0 4.0 0.00 0.00 0.00 84 1013.2
20260905160043 73 339 2.0 4.0 0.00 0.00 0.00 85 1013.2
20260905155530 73 302 2.0 5.0 0.00 0.00 0.00 85 1013.2
20260905155031 72 84 1.0 7.0 0.00 0.00 0.00 87 1013.3
20260905154545 72 293 3.0 7.0 0.00 0.00 0.00 87 1013.5
20260905154025 71 321 2.0 4.0 0.00 0.00 0.00 87 1013.5
20260905153524 71 321 2.0 5.0 0.00 0.00 0.00 88 1013.5
20260905153026 70 290 2.0 5.0 0.00 0.00 0.00 88 1013.6
20260905152524 70 284 1.0 4.0 0.00 0.00 0.00 88 1013.5
20260905152021 70 188 1.0 5.0 0.00 0.00 0.00 89 1013.5
20260905151520 69 360 2.0 5.0 0.00 0.00 0.00 89 1013.6
20260905151021 69 286 1.0 5.0 0.00 0.00 0.00 90 1013.7
20260905150520 68 103 2.0 5.0 0.00 0.00 0.00 90 1013.7
20260905150017 68 309 2.0 4.0 0.00 0.00 0.00 91 1013.6
20260905145518 68 312 2.0 6.0 0.00 0.00 0.00 90 1013.6
20260905145019 68 355 2.0 6.0 0.00 0.00 0.00 91 1013.6
20260905144521 67 5 3.0 6.0 0.00 0.00 0.00 91 1013.6
20260905144015 67 350 2.0 8.0 0.00 0.00 0.00 91 1013.7
20260905143516 67 351 4.0 8.0 0.00 0.00 0.00 92 1013.5
20260905143016 67 351 3.0 8.0 0.00 0.00 0.00 92 1013.5
20260905142515 66 5 2.0 8.0 0.00 0.00 0.00 93 1013.5
20260905142017 66 355 1.0 9.0 0.00 0.00 0.00 93 1013.5
20260905141517 66 355 2.0 9.0 0.00 0.00 0.00 94 1013.4
20260905141016 65 9 2.0 5.0 0.00 0.00 0.00 94 1013.3
20260905140517 65 294 1.0 5.0 0.00 0.00 0.00 94 1013.4
20260905140016 65 312 3.0 6.0 0.00 0.00 0.00 94 1013.4
20260905135514 65 317 3.0 6.0 0.00 0.00 0.00 94 1013.3
20260905135013 65 291 3.0 7.0 0.00 0.00 0.00 94 1013.2
20260905134514 65 301 3.0 7.0 0.00 0.00 0.00 94 1013.2
20260905134014 65 321 2.0 5.0 0.00 0.00 0.00 95 1013.3
20260905133517 65 300 2.0 5.0 0.00 0.00 0.00 95 1013.3
20260905133013 65 313 3.0 6.0 0.00 0.00 0.00 95 1013.3
20260905132513 64 346 3.0 7.0 0.00 0.00 0.00 95 1013.3
20260905132018 64 346 3.0 5.0 0.00 0.00 0.00 95 1013.5
20260905131512 64 316 1.0 3.0 0.00 0.00 0.00 95 1013.7
20260905131011 64 315 2.0 4.0 0.00 0.00 0.00 95 1013.5
20260905130513 64 306 2.0 8.0 0.00 0.00 0.00 95 1013.2
20260905130015 64 273 2.0 8.0 0.00 0.00 0.00 95 1013.0
20260905125512 64 292 3.0 7.0 0.00 0.00 0.00 95 1012.9
20260905125008 64 355 2.0 6.0 0.00 0.00 0.00 95 1012.7
20260905124511 64 345 2.0 10.0 0.00 0.00 0.00 95 1012.8
20260905124006 64 355 3.0 6.0 0.00 0.00 0.00 95 1012.6
20260905123608 64 355 2.0 8.0 0.00 0.00 0.00 95 1012.6
20260905123005 64 5 4.0 8.0 0.00 0.00 0.00 96 1012.3
20260905122511 64 5 3.0 6.0 0.00 0.00 0.00 96 1012.3
20260905122005 64 5 2.0 6.0 0.00 0.00 0.00 96 1012.4
20260905121506 64 355 3.0 9.0 0.00 0.00 0.00 96 1012.3
20260905121004 64 338 2.0 6.0 0.00 0.00 0.00 96 1012.4